Flag for Norway Weather past 2 weeks in Haugesund, Norway

Now
55 °F

Scattered clouds.


Feels Like: 53 °F
Forecast: 50 / 57 °F
Wind: 9 mph from Northwest

Location: Haugesund / Karmoy

Current Time: Jul 31, 2015 at 4:08:35 PM

Latest Report: Jul 31, 2015 at 3:20 PM


Visibility: N/A

Pressure: 29.98 "Hg

Humidity: 67%

Dew point: 45 °F

Location of HaugesundLocation

Historic Weather in Haugesund — Graph

°F

Haugesund temperature yesterday

Maximum temperature yesterday: 57 °F (at 2:50 PM)
Minimum temperature yesterday: 52 °F (at 11:50 PM)
Average temperature yesterday: 55 °F

Past Weeks' High & Low Weather Summary

 TemperatureHumidityPressure
High70 °F (Jul 17, 2:20 PM)100% (Jul 18, 4:50 AM)30.15 "Hg (Jul 18, 4:50 AM)
Low45 °F (Jul 17, 4:50 AM)40% (Jul 17, 2:20 PM)29.39 "Hg (Jul 29, 12:50 PM)
Average56 °F84%29.70 "Hg
* Reported Jul 16 2:20 PM — Jul 31 2:50 PM, Haugesund, Weather by CustomWeather, © 2015

Note: Actual official high and low records may vary slightly from our data, if they occured in-between our weather recording intervals... More about our weather records

Advertising

Haugesund weather history for previous 24 hours

 ConditionsComfort  
Time TempWeatherWind HumidityBarometerVisibility
2:50 PM
Fri, Jul 31
55 °FScattered clouds.12 mph72%29.95 "HgN/A
2:20 PM57 °FPartly sunny.9 mph63%29.95 "HgN/A
1:50 PM57 °FPartly sunny.8 mph67%29.95 "HgN/A
1:20 PM55 °FPartly sunny.8 mph72%29.95 "HgN/A
12:50 PM54 °FPartly sunny.8 mph77%29.95 "HgN/A
12:20 PM55 °FPartly sunny.10 mph77%29.95 "HgN/A
11:50 AM54 °FPartly sunny.9 mph77%29.95 "HgN/A
11:20 AM54 °FPartly sunny.13 mph72%29.95 "HgN/A
10:50 AM54 °FPartly sunny.10 mph72%29.95 "HgN/A
10:20 AM54 °FLight rain. Partly sunny.9 mph77%29.92 "HgN/A
9:20 AM50 °FPartly sunny.13 mph88%29.92 "HgN/A
8:50 AM52 °FPartly sunny.12 mph77%29.92 "HgN/A
8:20 AM52 °FPartly sunny.16 mph77%29.92 "HgN/A
7:50 AM52 °FPartly sunny.8 mph82%29.89 "HgN/A
7:20 AM52 °FPartly sunny.8 mph82%29.89 "HgN/A
6:50 AM50 °FPartly sunny.12 mph88%29.89 "HgN/A
5:50 AM50 °FPassing clouds.13 mph88%29.89 "HgN/A
5:20 AM50 °FMostly cloudy.17 mph88%29.89 "HgN/A
4:50 AM52 °FPassing clouds.16 mph82%29.86 "HgN/A
4:20 AM50 °FMostly cloudy.17 mph94%29.86 "HgN/A
3:50 AM50 °FPassing clouds.17 mph94%29.86 "HgN/A
3:20 AM52 °FRain. Mostly cloudy.13 mph77%29.86 "HgN/A
2:50 AM52 °FMostly cloudy.17 mph82%29.86 "HgN/A
2:20 AM52 °FMostly cloudy.17 mph82%29.86 "HgN/A
1:50 AM52 °FMostly cloudy.18 mph82%29.86 "HgN/A
1:20 AM52 °FMostly cloudy.16 mph82%29.83 "HgN/A
12:50 AM52 °FMostly cloudy.17 mph82%29.83 "HgN/A
11:50 PM
Thu, Jul 30
52 °FOvercast.22 mph82%29.83 "HgN/A
11:20 PM54 °FOvercast.17 mph82%29.83 "HgN/A
10:50 PM54 °FPartly sunny.17 mph82%29.83 "HgN/A
10:20 PM54 °FPartly sunny.20 mph82%29.83 "HgN/A
9:50 PM54 °FPartly sunny.20 mph82%29.80 "HgN/A
9:20 PM54 °FPartly sunny.18 mph82%29.80 "HgN/A
8:50 PM55 °FScattered clouds.18 mph77%29.80 "HgN/A
8:20 PM54 °FScattered clouds.21 mph82%29.80 "HgN/A
7:50 PM55 °FScattered clouds.20 mph77%29.77 "HgN/A
7:20 PM55 °FScattered clouds.22 mph72%29.77 "HgN/A
6:50 PM55 °FScattered clouds.22 mph72%29.77 "HgN/A
6:20 PM55 °FBroken clouds.22 mph77%29.77 "HgN/A
5:50 PM55 °FBroken clouds.22 mph72%29.74 "HgN/A
5:20 PM55 °FBroken clouds.21 mph77%29.74 "HgN/A
4:50 PM55 °FBroken clouds.23 mph77%29.74 "HgN/A
4:20 PM55 °FBroken clouds.24 mph77%29.74 "HgN/A
Weather by CustomWeather, © 2015

See weather overviewHow to use our weather pages